This demonstration page uses our WeatherBlox Daily Observations layout. Learn more.

Left ArrowRight Arrow

39.08367, -84.50855

Hourly Observations for January 29, 2021

Temp ( °F °C ) Dew Point ( °F °C ) Humidity (%) Winds ( mph kmh ) Pressure ( in mb ) Visibility ( mi km ) Precip ( " mm )
12:53 am 00:53 Clear 24 -4.4 15 -9.4 68 68 NW 5 7 30.54 1034 10 16.0934 0 0
1:53 am 01:53 Clear 20 -6.7 16 -8.9 85 85 Calm 30.53 1034 10 16.0934 0 0
2:53 am 02:53 Clear 19 -7.2 16 -8.9 88 88 Calm 30.54 1034 10 16.0934 0 0
3:53 am 03:53 Clear 18 -7.8 15 -9.4 88 88 Calm 30.53 1034 10 16.0934 0 0
4:53 am 04:53 Clear 19 -7.2 16 -8.9 88 88 Calm 30.51 1033 10 16.0934 0 0
5:53 am 05:53 Clear 21 -6.1 17 -8.3 85 85 Calm 30.51 1033 10 16.0934 0 0
6:53 am 06:53 Clear 21 -6.1 17 -8.3 85 85 Calm 30.52 1033 10 16.0934 0 0
7:53 am 07:53 Sunny 20 -6.7 16 -8.9 85 85 Calm 30.52 1034 10 16.0934 0 0
8:53 am 08:53 Sunny 22 -5.6 19 -7.2 89 89 Calm 30.54 1034 10 16.0934 0 0
9:53 am 09:53 Mostly Cloudy 25 -3.9 19 -7.2 78 78 Calm 30.53 1034 10 16.0934 0 0
10:53 am 10:53 Mostly Cloudy 26 -3.3 18 -7.8 71 71 Calm 30.52 1034 10 16.0934 0 0
11:53 am 11:53 Mostly Cloudy 28 -2.2 17 -8.3 63 63 Calm 30.51 1033 10 16.0934 0 0
12:53 pm 12:53 Cloudy 29 -1.7 17 -8.3 61 61 S 3 6 30.48 1032 10 16.0934 0 0
1:53 pm 13:53 Cloudy 30 -1.1 16 -8.9 56 56 Calm 30.45 1031 10 16.0934 0 0
2:53 pm 14:53 Cloudy 31 -0.6 15 -9.4 52 52 Calm 30.42 1030 10 16.0934 0 0
3:53 pm 15:53 Cloudy 32 0 15 -9.4 50 50 NE 3 6 30.42 1030 10 16.0934 0 0
4:53 pm 16:53 Sunny 33 0.6 15 -9.4 47 47 N 3 6 30.41 1030 10 16.0934 0 0
5:53 pm 17:53 Sunny 29 -1.7 15 -9.4 56 56 NE 5 7 30.4 1030 10 16.0934 0 0
6:53 pm 18:53 Clear 29 -1.7 15 -9.4 56 56 NE 5 7 30.41 1030 10 16.0934 0 0
7:53 pm 19:53 Clear 26 -3.3 18 -7.8 71 71 Calm 30.42 1030 10 16.0934 0 0
8:53 pm 20:53 Clear 25 -3.9 16 -8.9 69 69 N 3 6 30.4 1029 10 16.0934 0 0
9:53 pm 21:53 Clear 20 -6.7 16 -8.9 85 85 Calm 30.38 1029 10 16.0934 0 0
10:53 pm 22:53 Clear 22 -5.6 18 -7.8 85 85 Calm 30.38 1029 10 16.0934 0 0
11:53 pm 23:53 Clear 20 -6.7 16 -8.9 85 85 NE 3 6 30.38 1029 10 16.0934 0 0

Powered by AerisWeather